Wind_Speed
19 19 19 19 19 18 19 19 19 18 18 18 18 18 18 18 18 18 18 18 18 18 18 19 19 19 19 20 20 20 21 21 21 21 21 20 20 20 20 21 20 20 21 21 21 21 22 23 23 23 23 23 23 23 23 23 24 24 23 23 22 22 24 26 27 24 23 24 24 23 23 21 21 24 22 20 21 22 22 23 25 25 26 25 23 22 20 19
22 21 21 21 21 21 21 21 21 21 21 21 20 20 20 20 21 21 21 21 21 21 21 22 22 22 22 22 22 23 23 24 24 24 23 23 23 22 22 22 22 22 22 22 23 23 23 24 24 24 23 23 23 23 23 23 24 24 24 22 22 24 24 26 27 27 26 24 23 24 24 23 23 24 23 22 22 24 23 25 26 25 27 27 25 24 22 21
24 24 24 24 23 23 23 23 23 23 23 23 23 23 23 23 23 23 24 24 24 24 24 24 24 24 24 24 24 24 25 26 26 25 25 24 24 24 24 23 23 24 24 24 24 23 23 23 23 23 23 23 23 24 24 25 25 24 25 23 22 24 24 26 28 28 27 24 22 23 24 24 25 25 24 23 23 23 24 26 27 26 28 29 27 25 24 23
27 27 27 27 26 26 26 26 26 26 26 26 26 26 26 26 26 26 26 26 27 27 27 27 26 26 26 26 26 25 26 26 27 26 25 25 25 25 25 24 24 24 24 24 23 23 22 23 24 24 25 25 25 26 26 28 28 26 26 24 23 25 24 26 29 29 28 27 23 23 24 23 25 26 25 25 23 21 23 27 28 28 28 29 29 27 26 26
31 30 30 30 29 29 29 29 29 29 29 29 29 29 29 29 29 29 29 29 29 29 29 28 28 28 27 27 26 26 26 26 26 26 26 26 26 26 25 25 24 23 23 23 24 24 24 25 27 27 27 27 27 28 29 30 30 27 26 26 26 27 26 27 30 29 29 29 26 26 25 23 25 25 27 28 24 21 23 27 29 30 30 30 30 29 28 28
34 33 33 32 32 32 32 32 32 32 32 32 32 32 32 31 31 31 31 32 31 31 31 30 30 29 28 27 26 25 25 26 27 25 25 26 26 25 24 24 23 23 24 25 26 27 28 29 29 30 29 29 28 29 30 31 31 29 27 27 28 28 26 26 29 30 30 30 29 30 28 26 26 27 29 28 24 21 24 28 29 30 32 32 31 30 29 29
36 35 35 35 35 35 34 34 34 34 34 34 34 34 34 33 33 33 33 33 33 32 32 31 30 29 28 26 25 24 23 26 28 26 25 26 25 24 24 24 24 25 27 28 29 29 30 30 31 32 30 30 30 30 32 32 33 32 28 27 29 29 27 27 28 29 30 30 31 32 31 28 30 33 29 23 21 23 25 28 29 30 32 32 30 29 30 29
37 37 37 37 37 37 37 37 36 36 36 36 36 35 35 34 34 33 34 33 33 33 32 32 30 29 28 26 25 22 21 28 30 27 26 26 26 26 25 26 27 28 29 30 31 31 31 32 32 33 32 31 31 31 34 35 35 33 31 30 30 30 29 29 28 29 30 30 32 34 33 29 32 38 28 19 20 25 29 30 28 29 31 31 31 29 29 29
37 37 38 37 38 38 38 38 38 38 38 37 37 36 35 34 34 33 33 33 33 32 31 31 29 29 28 26 25 20 21 30 31 28 28 27 27 28 27 28 29 30 31 32 33 33 33 34 34 35 35 34 33 33 35 37 36 34 34 33 32 31 30 30 29 29 31 31 33 35 34 31 34 39 27 19 23 30 33 34 30 30 30 31 33 31 30 29
35 35 36 36 36 36 36 36 36 36 36 36 35 35 34 33 32 32 32 31 32 31 31 30 29 29 27 26 24 18 23 33 31 30 31 30 30 30 30 31 32 33 33 34 35 36 37 37 37 38 38 37 36 36 37 38 37 37 37 36 33 32 31 31 30 30 34 32 34 38 38 34 37 40 28 21 27 33 35 35 32 33 32 33 35 35 33 30
34 34 34 34 34 34 34 34 34 34 34 33 33 33 32 32 31 31 31 31 32 31 31 31 31 30 29 28 24 20 26 32 31 33 33 33 33 33 33 34 34 35 35 36 37 37 38 39 39 40 40 39 38 38 38 39 40 39 39 38 35 35 32 31 31 31 35 35 36 42 43 39 39 40 31 25 30 34 36 35 33 34 34 34 36 37 37 33
34 34 34 34 33 33 33 33 34 34 34 33 33 33 33 32 32 32 32 33 33 33 33 34 34 34 34 31 26 26 30 31 33 35 36 37 36 35 35 35 35 36 36 36 37 38 39 39 40 41 42 42 40 40 40 39 41 40 41 41 38 37 34 31 33 34 36 38 39 45 48 43 39 38 33 30 34 37 37 36 35 34 34 34 36 38 38 36
37 36 36 36 35 35 35 35 35 36 35 35 35 35 35 35 35 35 35 36 36 37 37 38 38 38 38 33 28 30 32 32 34 37 38 39 37 36 36 35 36 36 36 37 37 38 40 40 41 42 42 43 42 42 42 41 42 42 43 44 41 41 36 31 36 38 37 40 42 47 52 46 38 36 35 35 38 39 38 37 36 35 34 34 35 37 38 38
40 40 39 39 39 38 38 38 38 39 38 38 38 39 39 39 39 39 39 39 40 40 40 40 40 40 40 35 30 32 32 34 36 38 39 39 38 37 36 36 37 37 37 38 38 39 41 42 43 43 43 43 43 42 42 42 43 43 44 45 44 45 40 34 38 39 37 40 43 48 54 49 40 36 35 37 40 40 40 38 37 36 33 33 33 34 36 37
42 42 42 42 42 42 42 42 42 42 42 42 42 41 41 42 41 41 41 41 42 42 42 42 42 43 43 37 33 34 34 36 39 39 39 39 39 38 37 37 38 38 39 39 40 41 42 44 45 46 45 44 43 42 41 42 43 42 44 46 46 48 46 40 38 38 37 40 44 49 54 51 43 36 35 39 41 42 41 36 35 34 31 31 32 33 35 36
44 44 44 44 44 44 44 44 44 45 44 44 44 44 44 44 43 43 43 43 43 43 44 45 44 45 45 39 36 36 36 38 39 39 39 39 39 39 38 39 39 40 41 42 42 43 44 46 47 48 48 45 43 42 42 44 43 41 44 48 47 48 49 45 40 37 38 41 45 49 54 52 45 39 38 39 41 43 40 34 33 32 30 29 31 33 34 33
45 45 46 46 46 46 46 46 46 46 47 46 46 47 46 46 46 46 46 46 46 46 46 47 46 47 46 42 39 38 38 39 39 39 40 39 39 39 40 40 41 42 43 44 45 45 47 49 50 50 48 46 43 43 45 47 44 43 46 49 49 49 50 49 43 38 37 42 46 49 53 51 46 44 41 39 40 43 40 34 33 32 30 30 31 32 32 30
46 47 47 47 47 47 47 48 48 48 48 48 48 49 49 49 49 49 49 49 48 48 48 48 48 48 47 43 41 40 40 40 40 40 40 39 40 40 41 42 42 43 44 45 46 47 49 50 51 51 48 45 43 44 48 49 47 47 49 50 51 51 50 50 47 41 40 44 48 50 52 51 49 46 43 39 38 40 38 35 34 33 32 31 30 30 28 28
47 47 47 48 48 48 48 49 49 49 50 50 49 50 50 50 50 50 50 50 50 49 50 49 48 49 47 45 44 44 43 42 42 41 40 40 41 42 43 44 44 45 46 46 48 49 50 52 53 51 45 42 43 46 50 50 49 51 51 52 52 52 52 50 48 46 46 48 49 50 51 51 51 48 44 41 38 38 36 35 35 34 32 29 28 27 26 27
48 48 48 48 49 49 49 50 51 50 51 51 51 51 51 52 52 52 52 51 51 50 51 51 50 50 48 46 47 48 46 45 44 42 41 41 42 43 45 46 47 47 48 48 50 51 51 53 53 48 43 43 46 49 50 50 51 52 53 53 54 55 54 50 49 49 50 53 51 49 50 50 51 49 46 44 40 36 33 35 37 35 30 26 25 25 24 26
49 49 49 49 49 50 51 51 52 52 52 52 53 53 53 53 53 54 53 52 52 52 52 52 52 52 50 49 50 50 50 48 46 44 43 43 43 45 46 47 48 49 49 49 51 50 51 53 50 44 43 46 48 48 49 50 51 52 53 54 55 55 55 52 52 51 52 54 53 52 51 50 48 47 46 45 41 36 32 34 36 34 28 23 24 24 23 25
50 50 50 50 51 51 52 52 53 53 54 54 54 55 56 56 56 56 56 54 52 53 54 53 53 53 52 52 52 52 52 50 48 46 45 45 45 46 47 48 48 49 50 50 49 50 52 53 47 43 45 47 48 48 50 50 51 52 52 55 56 55 56 56 55 53 53 55 54 53 52 50 47 46 46 44 40 36 34 33 33 32 28 23 24 26 25 25
52 52 52 52 52 52 53 53 53 54 54 55 55 56 56 57 57 57 58 57 54 53 53 54 54 55 54 55 54 53 53 51 49 48 47 47 47 47 48 48 48 49 49 48 48 50 54 53 47 46 47 48 49 50 51 51 52 52 53 55 56 55 56 58 56 54 55 55 54 53 52 52 50 48 48 45 39 35 34 33 31 31 30 27 25 25 25 25
54 54 54 54 53 53 53 53 53 53 54 55 55 56 56 56 57 57 58 59 57 55 54 53 55 56 56 56 55 54 53 52 51 50 50 50 50 49 50 50 50 50 49 48 49 52 53 52 49 48 49 50 52 52 52 53 53 54 54 56 56 55 55 57 56 56 55 54 54 53 53 54 53 50 49 46 40 36 34 34 32 30 31 29 26 24 24 25
55 55 54 53 53 53 54 55 55 55 55 55 56 56 56 56 56 57 57 58 58 56 56 55 55 56 56 57 56 54 54 53 53 52 52 51 51 50 50 50 51 50 49 49 51 53 52 51 50 50 50 51 52 53 53 55 56 56 56 55 54 54 54 55 55 56 56 55 53 52 53 54 54 52 49 47 44 39 38 39 34 30 30 28 26 25 24 22
55 55 54 54 54 54 55 55 55 55 55 55 55 55 55 55 56 56 56 57 57 56 57 57 55 55 55 55 54 54 53 52 51 50 49 48 48 48 49 49 49 50 50 51 53 54 52 50 49 50 50 51 52 52 52 54 56 56 54 52 52 53 53 53 54 54 55 55 54 53 54 55 55 54 50 49 49 45 44 45 37 29 30 30 27 26 26 26
52 53 54 54 54 53 53 53 53 53 53 53 53 52 53 53 53 52 52 54 56 57 59 59 57 55 53 52 52 51 50 49 49 48 48 48 48 48 49 49 49 50 51 53 55 55 53 50 49 49 49 50 50 47 47 50 52 52 51 49 50 50 50 50 51 52 53 54 55 55 56 56 55 55 53 51 51 49 49 50 43 33 31 32 30 29 31 34
50 52 52 52 52 51 50 50 51 51 51 51 51 51 51 50 50 49 50 52 56 58 59 59 57 55 53 52 51 49 49 48 48 48 47 47 46 46 47 47 47 48 49 51 54 53 50 50 49 49 49 48 45 44 45 46 47 47 47 46 46 46 47 48 49 51 52 53 56 56 55 55 54 54 56 55 54 52 50 49 46 38 34 33 34 35 38 39
49 51 51 51 50 50 51 51 52 51 51 51 51 51 51 50 49 49 49 53 58 59 58 57 56 55 53 52 50 48 47 46 45 45 45 44 44 44 44 44 45 46 47 49 51 48 46 46 47 48 47 44 43 44 44 44 44 44 44 44 44 45 46 48 49 50 51 53 56 55 52 52 53 52 54 56 55 55 53 49 44 39 38 38 39 41 43 43
49 50 51 51 51 52 53 53 53 53 54 54 53 53 51 50 49 49 52 57 58 57 55 56 55 54 52 50 48 46 45 44 43 43 43 43 43 43 44 45 45 46 46 48 48 46 45 45 46 45 44 42 42 42 42 42 43 43 43 43 44 46 47 49 50 50 52 53 52 52 50 50 52 53 54 55 55 55 54 52 48 42 39 41 43 45 48 48
51 51 52 53 54 54 54 55 55 55 55 55 54 53 51 50 49 51 56 58 55 53 52 53 53 51 49 47 46 45 45 45 45 45 45 45 45 45 45 46 47 48 49 49 48 48 48 48 47 46 44 44 44 43 43 43 43 42 43 44 45 47 48 50 51 51 52 52 50 50 50 50 52 54 55 55 56 55 53 52 53 49 44 44 46 50 54 55
54 54 55 56 56 56 55 55 55 54 53 52 50 51 51 51 51 53 55 53 51 51 50 50 51 50 48 47 47 48 49 49 50 49 50 50 50 49 48 49 49 50 51 51 50 50 51 50 50 50 48 47 48 48 48 47 46 46 45 45 46 47 49 51 52 52 52 51 51 52 54 54 53 53 53 53 54 54 54 53 55 54 51 50 52 55 59 62
55 55 54 54 53 53 53 52 51 50 49 48 48 50 51 52 54 56 54 51 50 52 51 51 52 51 51 51 51 52 52 52 52 53 53 53 53 53 52 52 52 52 53 53 53 53 53 52 52 52 51 50 51 51 51 50 50 50 49 48 49 50 53 54 54 54 54 54 54 55 57 58 55 52 52 52 52 53 55 57 58 59 59 60 63 65 67 69
56 56 55 53 50 48 47 46 46 47 47 48 50 51 53 55 58 59 57 55 54 54 53 54 53 53 54 54 55 55 54 53 53 53 54 55 56 56 55 54 53 53 52 53 55 56 56 56 54 54 54 53 53 53 52 53 53 53 52 52 54 54 54 55 55 55 57 58 59 60 62 61 57 53 54 54 54 56 59 62 64 65 68 70 72 72 73 74
60 58 57 55 53 52 51 50 49 49 50 50 51 52 53 56 58 58 58 59 58 56 55 55 54 55 56 56 56 56 55 56 56 56 56 56 57 57 56 55 53 53 52 54 55 55 58 59 57 57 58 57 57 57 56 57 57 57 57 58 59 57 55 57 58 59 60 62 64 66 67 66 61 58 58 58 60 62 65 67 68 70 72 73 74 74 74 76
57 57 57 55 54 55 57 58 58 59 58 58 58 57 54 54 56 56 56 57 57 56 55 55 55 57 58 59 58 58 58 58 59 59 59 59 59 58 57 55 53 53 54 55 56 56 59 61 58 59 62 61 61 62 62 62 63 64 64 64 62 60 60 61 62 62 62 64 67 68 70 70 68 67 64 62 63 65 68 69 69 72 73 73 75 76 77 77
51 53 54 54 54 55 56 58 60 63 64 65 66 65 61 60 60 59 59 58 57 57 57 57 57 57 58 59 59 59 60 60 60 60 61 61 62 62 60 58 57 58 58 58 59 60 62 63 61 62 65 65 65 66 66 67 68 67 65 63 61 62 64 62 62 63 64 66 69 69 70 70 71 72 71 67 64 65 68 69 71 74 75 76 78 80 80 77
52 52 52 52 54 56 57 57 58 59 60 62 64 64 62 61 61 61 63 63 64 65 65 64 63 61 61 59 58 59 60 62 63 63 63 63 64 64 63 62 62 62 62 63 64 65 66 67 67 66 67 68 66 66 68 69 67 65 62 61 60 62 63 62 63 64 65 67 70 70 69 68 68 70 69 65 61 62 64 65 68 72 75 77 78 78 76 74
63 61 59 58 58 58 58 58 57 56 57 58 58 57 56 55 55 57 60 62 63 64 66 66 65 65 64 62 61 61 61 63 64 64 65 65 66 66 65 65 65 65 65 65 66 67 68 68 69 69 70 70 69 69 69 65 62 61 61 62 63 63 63 63 64 64 64 66 68 67 67 67 67 66 64 63 62 61 61 62 64 67 70 72 72 71 68 66
71 70 69 67 66 64 63 63 63 63 62 61 59 58 57 56 56 56 57 59 60 61 63 64 64 65 65 64 64 64 64 65 66 66 67 68 68 68 67 67 67 66 66 66 66 67 68 68 69 69 70 71 71 69 66 62 61 63 63 64 64 63 63 64 64 64 64 65 65 65 67 67 66 64 64 65 64 61 60 61 63 64 64 65 65 65 64 64
73 72 72 72 70 69 69 70 71 72 72 71 69 67 66 64 63 62 63 64 65 65 66 67 67 68 68 67 67 67 68 69 69 69 69 70 69 68 67 67 66 66 66 66 65 66 66 67 69 68 68 69 68 65 64 65 65 66 66 65 64 63 62 63 65 64 62 63 63 62 64 64 61 60 62 63 62 60 60 62 64 64 64 64 65 67 69 70
70 71 72 72 72 71 71 71 72 74 75 75 73 70 69 68 68 68 68 69 69 68 68 68 69 69 68 68 68 67 68 69 70 71 71 71 69 67 67 67 67 66 66 65 65 65 65 66 69 70 69 68 65 63 64 66 66 67 67 65 63 62 61 61 63 63 61 63 63 63 67 69 66 62 62 63 65 66 67 67 68 69 69 69 70 73 76 78
68 69 70 71 72 72 73 73 73 73 73 71 69 69 69 70 70 70 70 69 68 67 66 66 65 65 66 65 66 66 67 69 70 70 70 70 68 68 67 66 66 65 65 66 66 65 64 65 66 68 68 67 66 65 65 67 66 65 64 61 60 62 61 62 64 64 64 66 67 68 73 72 68 64 62 62 64 66 67 68 68 69 70 72 74 76 79 82
68 68 68 69 70 71 72 72 72 71 69 68 67 66 66 67 67 67 67 67 65 64 63 62 61 61 62 62 63 64 65 68 69 67 66 67 67 67 66 65 64 63 63 63 62 59 59 61 62 63 66 68 69 68 68 68 67 66 65 63 64 65 65 66 66 65 67 69 67 69 72 71 67 66 64 63 63 64 65 67 69 71 73 75 76 77 78 80
67 67 67 66 66 67 67 66 65 65 64 63 63 62 62 62 62 60 61 63 63 62 62 61 60 60 61 61 62 63 63 64 66 65 65 65 63 63 63 62 60 58 57 58 57 57 60 63 63 64 67 70 71 71 70 69 68 68 67 65 65 65 65 65 65 66 69 71 69 70 72 71 68 68 67 66 66 66 66 66 67 68 70 71 72 73 74 75
64 64 63 63 62 63 62 61 60 60 59 59 59 58 57 58 58 57 58 60 61 62 62 62 62 61 62 63 63 63 62 62 64 64 64 64 63 63 64 64 62 60 61 62 63 63 66 68 68 68 70 70 70 70 69 68 68 68 67 67 66 66 66 65 66 69 72 73 74 73 74 75 73 71 72 72 72 71 71 71 70 70 69 70 70 71 73 74
62 61 61 60 60 61 60 60 60 59 58 58 59 58 57 57 57 57 57 58 59 59 60 61 61 62 63 63 63 64 64 63 64 65 65 65 66 66 67 66 66 66 66 66 67 67 69 71 70 70 71 70 69 70 69 69 70 70 70 70 69 68 69 70 73 75 74 76 78 77 75 78 78 75 76 77 76 77 77 76 76 76 76 76 77 77 78 79
61 60 60 60 60 60 59 59 59 59 59 60 61 60 59 58 58 57 57 57 58 58 59 61 60 60 61 61 62 64 64 64 65 65 65 66 66 67 67 67 67 67 66 67 68 68 70 73 71 70 71 71 70 71 71 71 72 72 72 72 72 71 72 74 76 75 74 77 79 77 75 77 77 76 77 78 77 77 77 76 76 76 76 76 78 79 80 81
61 61 60 60 60 60 60 60 60 60 60 60 61 61 60 59 59 58 58 60 60 59 60 61 60 59 60 60 61 63 63 64 65 64 64 65 65 66 67 67 67 67 66 67 68 69 71 73 72 72 73 73 71 71 71 71 72 73 74 75 75 75 75 75 76 75 75 77 77 75 74 74 74 74 75 75 75 75 74 74 74 74 74 75 77 79 80 81
62 61 61 61 61 60 61 61 61 61 60 60 61 61 59 59 60 59 60 61 62 61 60 62 61 60 60 60 61 62 62 62 63 63 63 64 65 66 66 67 67 67 67 67 68 69 71 73 73 73 75 75 73 72 72 73 74 76 77 76 75 76 76 75 75 73 72 73 73 72 72 72 71 72 72 73 74 75 75 76 76 78 79 80 80 79 79 79
62 62 62 62 62 61 61 61 61 61 60 60 61 60 59 59 60 60 60 61 61 61 60 61 62 61 61 60 61 62 62 62 62 63 63 63 64 65 67 67 67 67 68 67 68 69 70 73 73 73 76 77 74 73 74 74 75 78 78 76 74 73 72 70 68 64 63 64 66 67 69 71 72 74 76 77 78 78 79 80 80 81 82 81 81 80 79 79
62 62 62 62 62 61 61 61 60 60 60 59 59 60 59 59 60 60 60 60 61 60 60 61 61 61 62 62 62 62 63 63 63 64 64 64 65 66 67 68 67 67 67 67 69 70 70 72 73 74 77 79 75 75 76 76 78 80 77 74 72 70 68 68 66 64 65 69 70 71 73 75 77 79 81 82 82 82 82 82 82 82 82 82 82 82 83 83
Wind_Direction
253 253 253 253 253 253 252 253 255 258 261 263 265 267 269 271 273 276 278 280 282 284 285 287 288 290 291 292 293 294 294 294 293 293 293 293 294 293 293 292 292 293 294 294 295 295 295 296 296 297 297 297 298 298 298 298 298 301 303 308 305 295 292 295 296 293 291 291 293 292 290 290 285 284 290 292 288 282 278 276 274 275 277 278 278 278 279 279
255 255 256 256 256 256 256 257 258 261 262 264 266 268 270 272 274 276 278 280 282 284 286 287 288 289 291 292 292 293 293 293 292 292 291 292 292 291 291 291 292 293 293 294 294 295 295 296 297 298 297 298 299 299 299 299 300 304 307 313 305 294 297 298 293 291 294 296 294 291 290 289 284 284 289 289 284 282 280 274 273 275 276 278 279 278 278 277
257 258 258 259 259 259 260 261 262 264 265 267 268 270 272 273 275 277 278 280 282 283 285 286 287 288 289 290 291 291 291 291 290 289 289 290 290 289 290 290 291 292 293 293 293 293 294 296 297 297 298 299 300 299 300 300 301 306 310 313 304 297 300 297 291 292 297 298 296 292 289 287 286 286 288 286 285 282 278 275 274 274 275 278 281 279 278 276
259 259 260 261 261 262 263 264 265 266 268 269 271 272 274 275 276 277 278 279 281 282 283 284 285 286 287 287 288 288 289 288 288 288 289 289 288 289 289 290 290 291 292 293 293 294 294 296 297 297 298 299 300 300 300 300 303 308 309 308 301 297 298 294 291 294 297 299 298 292 288 287 287 288 287 287 292 287 277 275 276 275 273 275 278 280 278 276
261 261 262 262 263 264 265 266 267 268 269 270 272 273 274 276 277 278 279 279 280 281 281 282 283 283 284 284 285 286 287 286 285 286 288 287 288 288 288 289 289 290 291 292 293 294 296 296 297 297 298 299 299 300 300 300 303 306 307 304 299 295 296 294 293 296 298 299 298 293 289 289 286 286 285 290 300 295 279 275 274 274 274 274 276 278 278 278
263 263 264 265 265 265 266 267 267 268 270 271 272 273 274 275 276 278 278 279 280 280 280 281 281 281 281 281 282 282 285 285 281 282 284 285 286 286 286 287 288 289 290 291 293 295 296 296 296 296 296 297 297 298 298 298 300 303 306 303 297 296 298 295 293 297 298 298 297 293 292 290 286 280 281 293 303 295 282 275 272 272 274 277 279 279 279 280
264 265 266 266 267 267 268 269 270 270 271 271 272 273 274 275 276 277 278 278 279 279 279 279 279 279 278 279 279 281 285 282 278 279 281 282 284 284 284 285 286 288 289 291 293 294 294 294 294 293 294 295 294 294 294 295 297 301 304 300 297 299 300 296 295 298 296 296 294 291 291 290 286 280 285 302 301 290 280 274 275 274 274 279 282 282 280 280
265 265 266 267 268 268 269 270 271 272 272 272 273 273 274 274 275 276 276 277 277 277 277 277 278 277 277 278 279 283 284 277 276 280 281 280 281 281 282 283 285 287 288 290 291 291 291 291 291 291 292 291 292 292 291 292 294 297 298 296 297 299 298 297 299 300 297 296 293 290 290 288 284 284 298 319 299 286 280 278 281 281 280 282 283 282 279 278
264 265 265 266 267 268 269 269 270 270 271 271 272 272 273 273 273 274 274 275 275 275 275 275 276 275 277 277 277 282 278 273 276 281 280 279 278 279 281 283 285 286 288 289 289 289 289 289 289 290 290 290 290 290 289 289 291 293 293 294 296 295 295 296 299 300 296 295 292 290 287 284 282 287 310 330 298 286 283 284 287 285 284 284 283 284 282 279
264 264 265 265 266 267 267 268 268 268 269 269 270 270 271 271 271 272 272 273 273 274 274 275 275 275 276 275 277 280 274 274 279 281 279 278 278 279 281 283 285 287 287 288 288 288 289 289 289 289 289 289 289 289 288 289 290 290 291 291 292 291 291 294 296 296 292 291 290 288 285 284 284 291 311 321 295 286 284 286 286 284 284 283 285 288 288 287
264 264 265 265 265 266 266 266 267 267 268 268 269 269 269 270 270 271 271 272 273 274 275 275 276 276 276 276 279 277 273 277 281 280 280 279 279 280 283 284 286 286 287 288 288 289 289 289 289 289 289 289 289 289 288 289 290 290 290 289 289 288 289 291 292 289 286 287 287 286 285 285 288 295 307 307 290 285 285 286 286 285 285 285 286 288 290 291
264 265 265 265 265 266 266 266 267 268 268 269 269 269 269 270 270 271 271 272 274 275 276 277 277 278 277 278 281 277 275 278 280 280 280 279 281 283 285 285 286 286 287 287 287 288 288 288 289 289 289 290 289 289 288 289 289 289 288 288 287 285 287 290 288 283 281 284 287 287 286 287 290 296 301 297 289 288 289 290 290 289 289 288 287 286 287 289
264 264 265 265 265 266 266 267 267 268 269 270 270 270 271 271 272 272 273 274 275 276 277 278 278 279 279 280 282 279 279 280 279 279 279 280 283 284 284 285 285 285 285 285 286 286 287 288 288 289 290 290 290 289 289 289 288 288 288 288 288 285 284 283 279 278 281 286 289 288 287 289 291 293 295 293 290 290 291 293 293 294 296 295 292 290 289 288
264 264 265 265 265 266 266 267 268 268 269 270 271 272 273 273 274 274 275 276 276 277 278 278 279 279 279 281 281 280 280 279 278 278 279 281 283 283 283 283 283 283 284 284 284 285 286 287 288 289 290 291 291 290 291 290 288 288 288 288 288 285 282 277 276 280 284 287 288 286 286 289 289 291 292 289 289 290 291 294 296 298 300 299 297 295 292 289
264 265 265 266 266 267 267 268 268 269 270 270 271 272 273 274 274 275 275 276 277 278 278 279 279 280 280 281 281 279 278 277 277 277 279 280 281 281 282 281 281 282 282 282 284 284 285 286 287 288 289 291 292 293 294 291 288 289 289 286 285 284 283 281 280 284 287 286 285 284 285 287 288 290 288 286 287 288 289 295 298 300 301 299 297 294 291 289
265 266 266 267 267 268 268 269 269 270 270 271 272 272 273 273 274 274 275 275 276 277 278 278 279 279 280 280 279 278 277 275 276 276 277 277 278 279 279 279 280 280 280 282 283 284 285 286 287 287 289 291 293 296 294 289 289 290 287 284 284 285 287 287 286 286 287 286 285 283 284 286 289 289 286 285 287 287 290 297 299 299 300 297 294 290 289 289
266 267 267 268 268 269 269 270 270 271 271 271 272 272 273 273 274 274 274 275 275 276 276 277 277 278 278 279 278 277 276 274 274 274 274 274 275 276 276 277 277 278 279 281 282 284 285 286 286 286 288 291 295 296 291 287 288 287 284 285 287 288 289 290 290 289 287 285 284 282 282 285 287 287 285 285 287 289 294 298 297 298 298 294 291 289 289 290
266 267 268 269 269 270 270 271 271 271 271 271 272 272 273 273 273 273 274 274 274 275 275 276 276 277 277 279 278 276 274 273 272 272 272 272 273 274 275 275 275 276 278 279 282 284 284 284 284 285 287 293 295 292 286 285 286 285 285 286 287 288 288 289 292 293 288 282 280 280 282 285 286 285 285 287 288 290 293 297 296 295 293 290 289 290 290 290
268 268 269 270 271 271 272 272 272 272 272 272 272 273 273 273 273 274 274 274 275 275 275 276 276 277 278 279 278 276 274 273 272 271 271 272 272 273 273 273 274 275 277 279 281 281 282 283 283 284 289 293 290 284 283 285 286 286 286 286 287 288 288 290 293 293 288 283 279 280 283 286 287 287 289 290 288 288 292 295 293 290 289 289 289 288 287 286
269 269 270 271 271 272 273 273 273 273 274 274 274 274 274 274 274 274 274 275 275 276 276 277 277 277 278 279 278 277 275 274 273 272 272 272 272 272 272 273 274 275 277 279 279 280 281 282 282 286 290 287 282 280 283 285 285 285 286 287 288 288 289 292 292 289 288 287 285 285 285 285 287 289 290 290 288 288 292 292 290 289 290 292 289 284 281 279
268 269 270 270 271 271 272 272 273 273 274 274 274 274 274 274 274 273 273 274 275 275 276 276 277 277 278 278 277 277 277 276 276 276 275 274 274 274 274 274 275 276 277 277 278 280 281 280 283 287 285 281 280 281 283 283 284 285 286 287 288 289 291 292 290 289 290 289 289 290 287 285 286 288 289 288 289 292 293 289 288 289 291 292 288 282 276 275
268 268 269 270 270 271 271 271 272 272 273 273 273 274 274 273 273 273 272 272 272 274 275 276 276 277 278 277 276 276 277 278 279 279 278 278 277 276 276 275 276 277 277 277 279 281 279 279 283 284 281 281 282 282 282 282 283 284 286 287 288 289 290 290 290 291 290 289 290 291 288 288 288 288 287 286 290 295 294 289 288 288 290 291 285 282 279 276
268 269 269 270 270 271 271 272 272 272 272 272 273 273 273 274 274 274 273 272 271 271 273 275 276 277 277 277 277 277 277 279 280 281 281 280 279 278 277 277 277 276 277 279 280 279 278 279 282 282 281 283 283 282 282 282 283 284 285 286 287 289 290 290 290 291 290 290 291 291 289 289 288 286 285 286 290 294 292 289 287 288 291 288 281 278 277 274
268 269 270 271 271 271 271 272 273 273 272 272 273 273 274 275 275 275 275 274 272 271 272 273 274 275 276 277 278 279 280 281 282 282 281 280 279 278 277 277 276 276 277 277 276 275 276 278 280 280 281 281 281 281 281 282 282 283 284 285 286 288 288 289 290 290 289 289 290 291 290 289 288 286 286 289 293 293 290 286 284 288 288 283 280 276 271 269
268 269 269 269 269 270 271 272 272 272 272 272 273 273 274 275 276 276 276 275 274 274 274 272 271 272 274 276 278 279 281 282 282 282 281 280 279 278 277 277 276 276 276 274 273 273 274 275 276 277 277 278 277 278 279 280 280 280 281 283 285 285 285 286 287 288 288 288 288 289 288 286 286 287 289 293 294 292 289 284 284 289 285 278 279 281 277 267
268 268 268 268 269 270 271 271 271 271 272 272 273 274 275 275 276 276 277 277 276 275 275 274 272 272 273 275 277 279 280 281 281 281 281 281 280 279 279 278 278 278 277 276 275 276 276 275 275 275 275 275 274 274 276 277 277 277 279 280 281 281 282 284 284 285 286 287 287 287 285 284 285 287 291 294 294 293 290 285 285 289 283 276 276 282 287 280
268 268 269 270 271 272 272 272 272 272 272 273 273 274 274 275 276 277 278 278 276 275 276 275 275 275 276 277 278 278 280 281 282 282 282 281 280 280 280 280 280 280 279 279 279 280 279 278 276 275 273 273 273 274 275 274 275 277 279 279 279 280 282 282 283 283 283 284 285 284 285 286 286 288 291 291 290 291 291 292 295 294 284 278 278 281 287 287
269 269 270 271 271 272 272 272 273 273 274 274 274 273 273 274 276 277 278 277 276 274 275 276 278 279 280 280 280 280 282 282 282 282 281 280 280 279 280 280 280 280 280 280 280 281 280 278 277 275 273 273 274 274 273 273 275 278 279 280 282 283 283 283 282 281 282 282 282 282 285 288 285 286 289 289 288 288 288 292 297 298 292 288 286 284 284 286
269 270 270 270 270 271 271 272 273 274 274 274 273 273 273 273 274 275 275 275 274 274 275 278 280 280 280 281 282 282 281 280 279 279 278 278 278 279 279 280 280 281 282 280 281 281 280 279 278 276 276 276 276 274 274 275 276 277 279 280 282 283 283 282 281 281 282 280 280 282 288 290 284 281 283 284 286 288 289 289 291 293 295 295 295 290 286 285
266 266 265 266 269 271 272 272 272 273 273 273 273 272 272 272 273 273 272 271 273 274 277 278 278 278 279 280 281 280 278 276 275 275 274 275 276 277 278 279 280 281 281 280 280 279 279 279 279 278 278 278 277 277 277 277 277 277 279 279 280 280 280 280 280 281 281 278 280 284 288 288 282 279 280 281 284 287 288 290 290 289 290 294 297 295 292 289
269 268 266 265 268 270 270 271 271 271 272 274 274 274 273 273 273 271 270 271 273 275 275 276 277 278 278 278 278 278 277 276 275 275 275 274 274 274 276 278 279 279 279 280 279 278 277 277 277 278 278 278 278 278 277 277 278 279 279 278 278 277 277 278 278 278 279 279 281 284 284 281 276 276 280 284 286 288 289 290 290 289 290 292 294 295 294 292
273 273 272 271 271 271 270 271 271 271 273 274 274 274 274 275 272 270 271 273 274 275 275 276 278 278 277 277 276 276 277 279 279 279 277 276 275 275 276 277 278 278 278 278 278 277 276 276 277 277 278 279 280 280 279 280 282 282 281 281 280 279 278 276 276 276 277 279 280 280 279 275 271 273 278 282 286 289 290 289 289 290 291 291 291 291 291 291
270 271 272 274 275 276 274 274 273 272 271 269 268 268 271 273 272 271 273 275 276 276 277 276 276 276 276 276 276 277 278 280 280 280 279 279 279 279 279 280 280 280 279 278 277 276 275 274 276 278 278 278 280 282 283 283 284 283 283 284 282 282 281 280 281 281 279 277 276 275 275 272 270 272 277 280 283 285 286 286 287 289 290 290 290 290 289 288
269 270 270 271 272 272 270 268 267 265 263 261 260 261 265 270 272 273 276 277 276 275 274 274 274 275 275 274 274 276 277 278 278 279 280 280 281 281 281 282 282 281 281 280 278 278 277 275 274 277 277 277 279 282 282 282 282 282 283 283 282 283 284 285 285 283 280 279 277 275 274 272 271 273 277 279 280 280 282 283 284 286 288 289 289 289 288 287
269 270 271 270 269 267 264 262 261 260 260 260 260 260 263 270 272 272 274 275 274 272 271 270 271 272 271 271 271 273 274 276 276 277 278 278 278 279 280 280 280 280 281 281 280 279 278 276 275 278 278 278 279 280 281 282 282 282 282 282 283 284 285 284 282 280 279 278 277 277 277 276 275 275 276 278 280 281 282 283 284 285 286 286 286 286 286 285
269 270 271 271 270 268 265 264 264 263 263 264 264 261 262 267 270 271 272 273 273 272 270 268 268 267 268 268 269 270 271 272 273 274 275 276 276 276 277 278 278 278 279 281 282 280 279 277 276 277 279 279 279 280 280 281 281 282 281 282 284 285 283 281 279 278 277 275 275 278 279 281 282 279 277 279 280 282 283 284 284 283 282 282 282 282 282 283
265 266 267 268 268 267 267 267 266 265 265 265 265 264 264 266 268 270 272 272 273 273 271 269 268 267 267 267 267 268 269 270 271 272 273 274 274 275 275 276 275 275 278 280 282 282 282 280 277 277 280 281 280 281 282 282 282 283 283 285 285 283 281 280 278 277 276 275 275 277 277 279 280 280 280 281 280 279 280 280 279 278 278 278 278 279 279 279
262 263 263 264 266 267 268 267 267 266 266 264 266 268 269 270 270 268 267 269 271 272 272 272 271 270 269 268 268 268 270 271 272 273 274 274 274 275 275 276 276 277 279 280 282 283 283 283 279 277 279 281 281 281 282 283 285 286 287 286 284 282 281 279 278 277 277 277 278 279 279 279 278 280 282 282 280 276 274 273 272 273 274 275 275 275 275 274
266 266 265 266 269 270 269 267 267 267 266 265 267 269 270 270 269 267 267 268 269 270 271 271 273 273 273 273 273 272 272 273 274 276 277 277 277 277 278 279 280 281 281 282 282 283 283 283 282 280 280 281 282 282 283 286 287 287 286 284 283 282 281 280 278 279 280 280 280 281 281 280 281 283 283 282 280 274 270 269 270 270 270 270 270 269 268 268
271 272 271 270 270 270 269 269 269 269 269 269 269 271 271 271 271 272 273 273 273 273 273 274 275 276 277 277 278 278 278 278 278 279 279 279 280 281 281 282 283 283 284 283 284 284 283 284 284 283 281 281 283 285 286 287 286 284 283 282 283 282 281 280 279 280 281 280 280 281 280 282 284 285 284 282 278 272 269 270 270 269 268 267 266 266 266 266
271 272 273 273 272 272 271 271 272 272 273 273 274 275 276 276 275 275 275 275 275 276 276 277 278 279 280 280 281 281 281 281 281 282 282 282 283 284 284 285 285 285 285 285 285 285 285 284 285 285 284 284 285 286 286 285 283 283 282 282 282 282 282 281 281 282 282 281 281 281 280 282 284 284 284 281 276 272 270 269 268 267 265 265 266 267 268 269
269 270 271 272 273 274 274 274 274 274 275 276 277 279 279 278 277 277 277 277 277 277 278 278 279 279 280 281 281 281 282 282 282 282 283 284 284 284 285 285 285 286 285 285 285 284 284 284 284 285 286 286 285 284 283 283 283 283 282 283 284 284 283 281 280 281 280 278 277 277 276 277 280 281 279 274 272 272 272 270 268 267 266 265 265 267 269 271
270 270 270 270 271 273 273 275 276 277 278 279 279 279 279 279 279 280 280 280 280 280 279 279 279 279 279 280 280 280 281 281 281 282 282 282 283 283 283 283 283 283 283 283 283 283 283 283 283 284 284 283 283 282 282 282 282 282 281 281 280 278 278 276 276 276 274 272 273 273 273 275 277 276 273 270 270 271 270 270 270 269 269 268 267 267 269 271
271 271 271 271 272 272 273 275 276 277 278 278 278 278 279 279 280 280 281 281 281 281 280 279 278 278 277 278 277 278 278 278 279 280 280 280 281 281 281 281 281 281 281 281 280 280 280 279 280 281 281 281 281 282 282 282 281 279 278 277 276 276 275 274 274 274 271 271 273 272 272 273 274 274 273 271 271 270 270 270 270 270 270 270 270 269 269 269
272 272 273 273 273 273 274 275 275 275 276 276 276 276 277 277 278 278 277 277 278 279 279 278 278 277 277 277 277 277 277 277 278 278 278 278 279 279 279 279 279 279 279 278 276 276 276 276 277 277 278 279 280 280 280 280 278 276 275 275 275 274 274 274 274 272 270 271 271 270 271 273 273 272 272 271 270 271 271 271 271 271 270 269 269 269 269 268
272 273 273 273 273 274 275 275 275 275 275 275 275 275 275 276 276 275 274 274 275 276 276 277 277 277 277 277 278 277 276 276 276 277 277 277 277 277 277 277 276 275 274 274 275 275 276 275 275 275 276 277 278 279 278 277 276 274 274 273 273 272 272 271 271 270 271 272 271 269 272 273 272 272 272 272 271 270 269 269 269 268 268 268 268 268 268 268
272 272 273 273 274 275 276 276 276 276 276 275 275 276 276 277 276 275 275 274 273 273 273 274 274 275 276 277 277 276 276 275 275 275 276 276 276 275 275 275 274 274 275 275 275 275 275 275 275 276 276 276 276 277 277 276 275 275 274 274 273 272 271 270 270 271 273 273 272 273 274 275 275 275 275 274 273 271 270 269 269 268 268 268 268 268 268 268
271 272 272 273 273 275 275 275 275 276 276 276 276 277 278 278 277 277 276 274 273 273 273 273 273 274 274 274 274 274 274 274 273 273 274 274 274 274 274 274 274 274 274 274 274 274 274 275 275 275 275 275 275 275 276 275 275 275 274 274 273 272 272 272 273 274 275 274 275 277 277 276 277 277 275 275 274 274 273 272 271 271 270 270 271 271 270 270
271 271 272 272 273 273 274 274 274 275 275 276 276 278 278 278 277 277 276 276 276 276 275 275 276 275 274 274 273 273 273 273 274 274 274 274 274 274 274 274 274 274 274 274 274 275 275 275 275 275 275 275 274 274 274 274 273 273 273 273 273 274 274 274 275 276 276 276 277 278 277 276 276 275 274 274 274 273 273 272 271 271 272 273 274 273 273 272
270 270 271 271 272 272 273 273 274 274 275 275 276 278 278 277 277 277 277 277 278 278 277 277 278 277 276 275 275 275 275 275 275 275 275 275 275 275 275 275 275 275 275 275 275 275 275 275 276 276 275 275 274 274 274 273 273 272 271 272 274 275 276 277 277 278 277 276 276 276 275 275 276 275 276 276 276 275 275 274 274 275 276 277 277 276 275 274
269 270 271 271 272 272 273 273 274 274 275 276 277 277 277 276 277 277 276 276 277 277 277 278 278 278 278 277 277 277 278 278 278 278 278 277 277 276 276 276 276 277 277 277 276 275 275 275 276 275 274 274 275 275 274 273 273 272 272 274 277 278 279 279 279 277 275 273 273 272 271 273 275 277 279 279 279 279 278 277 277 276 277 277 275 274 273 272
269 270 270 271 271 272 272 273 274 274 275 276 276 276 276 276 277 277 276 276 276 277 278 278 278 278 278 278 279 279 279 280 280 280 280 280 279 279 278 278 278 278 278 277 276 275 274 274 274 274 273 273 274 274 273 272 271 270 273 277 278 277 276 275 273 271 270 271 272 271 272 274 276 278 280 281 281 280 280 279 279 278 277 276 275 273 271 270
Height
5879 5879 5879 5880 5880 5881 5881 5881 5882 5882 5882 5882 5882 5883 5883 5883 5883 5883 5883 5883 5884 5884 5884 5884 5884 5884 5883 5883 5883 5883 5882 5882 5881 5881 5881 5881 5880 5880 5879 5879 5878 5878 5878 5878 5877 5877 5876 5876 5875 5875 5875 5874 5874 5873 5873 5872 5872 5872 5872 5872 5871 5869 5868 5867 5866 5866 5867 5866 5866 5865 5864 5865 5864 5862 5863 5864 5863 5861 5861 5859 5858 5858 5857 5857 5857 5857 5858 5858
5877 5877 5877 5878 5878 5878 5879 5879 5879 5880 5880 5880 5880 5880 5880 5881 5881 5881 5881 5881 5881 5881 5882 5882 5882 5882 5881 5881 5881 5881 5880 5879 5879 5879 5879 5879 5878 5878 5877 5877 5876 5876 5876 5876 5875 5875 5874 5873 5873 5873 5872 5872 5872 5871 5871 5870 5870 5870 5870 5871 5869 5867 5867 5865 5863 5863 5864 5865 5864 5863 5862 5862 5861 5860 5861 5861 5860 5858 5858 5856 5855 5856 5854 5854 5855 5855 5856 5856
5874 5875 5875 5875 5876 5876 5876 5877 5877 5877 5877 5877 5878 5878 5878 5878 5878 5878 5879 5879 5879 5879 5879 5879 5879 5879 5879 5879 5879 5879 5878 5877 5877 5877 5877 5877 5876 5876 5875 5875 5874 5874 5874 5874 5873 5873 5872 5871 5871 5870 5870 5870 5870 5869 5868 5868 5868 5869 5868 5869 5867 5865 5865 5863 5860 5860 5860 5862 5862 5860 5859 5859 5858 5858 5858 5858 5857 5857 5856 5853 5853 5854 5852 5851 5851 5852 5853 5853
5872 5872 5872 5873 5873 5873 5874 5874 5874 5874 5874 5875 5875 5875 5875 5875 5876 5876 5876 5876 5876 5876 5876 5876 5876 5876 5877 5877 5877 5876 5876 5875 5874 5874 5874 5874 5874 5873 5873 5873 5872 5872 5871 5871 5871 5871 5870 5869 5869 5868 5868 5868 5867 5867 5866 5865 5866 5867 5866 5866 5865 5863 5863 5861 5858 5858 5858 5858 5859 5858 5857 5857 5856 5855 5855 5854 5855 5855 5853 5850 5849 5850 5850 5849 5848 5849 5850 5849
5869 5869 5869 5870 5870 5870 5871 5871 5871 5871 5872 5872 5872 5872 5872 5873 5873 5873 5873 5873 5873 5874 5873 5874 5874 5874 5874 5874 5874 5874 5874 5872 5871 5871 5872 5871 5871 5871 5871 5870 5870 5870 5869 5869 5869 5868 5868 5867 5866 5866 5866 5865 5865 5864 5864 5863 5863 5864 5864 5863 5862 5861 5861 5859 5855 5855 5855 5855 5855 5854 5854 5855 5854 5853 5851 5851 5852 5853 5851 5847 5846 5846 5846 5846 5845 5846 5846 5846
5865 5866 5866 5867 5867 5867 5868 5868 5868 5868 5869 5869 5869 5869 5870 5870 5870 5870 5870 5870 5870 5870 5870 5871 5871 5871 5871 5871 5871 5871 5871 5870 5868 5869 5869 5869 5869 5869 5868 5868 5868 5868 5867 5867 5866 5866 5865 5865 5864 5863 5863 5863 5863 5862 5861 5860 5859 5861 5862 5860 5858 5858 5858 5857 5854 5853 5852 5851 5851 5850 5851 5852 5850 5849 5849 5849 5850 5850 5847 5843 5842 5843 5842 5842 5843 5843 5843 5843
5862 5862 5863 5863 5863 5864 5864 5864 5865 5865 5865 5866 5866 5866 5866 5867 5867 5867 5867 5867 5867 5867 5867 5867 5868 5868 5868 5869 5869 5869 5870 5866 5864 5866 5867 5866 5866 5866 5866 5866 5865 5865 5864 5864 5863 5863 5862 5862 5861 5860 5861 5861 5860 5859 5857 5856 5856 5857 5858 5857 5855 5855 5855 5854 5853 5852 5850 5849 5848 5846 5846 5848 5845 5844 5847 5849 5848 5846 5843 5840 5840 5840 5839 5840 5841 5840 5840 5839
5858 5858 5859 5859 5860 5860 5861 5861 5861 5861 5861 5862 5862 5862 5863 5863 5864 5864 5863 5863 5863 5864 5864 5864 5865 5865 5865 5866 5866 5867 5867 5862 5860 5864 5864 5864 5863 5863 5863 5863 5863 5863 5862 5861 5860 5860 5859 5858 5858 5857 5857 5857 5857 5857 5854 5853 5853 5853 5854 5854 5853 5852 5852 5851 5851 5849 5847 5846 5844 5842 5842 5844 5841 5838 5844 5849 5846 5842 5838 5837 5838 5837 5837 5837 5837 5837 5837 5836
5854 5854 5855 5856 5856 5856 5857 5857 5857 5857 5858 5858 5858 5859 5859 5860 5860 5860 5860 5860 5860 5860 5861 5861 5862 5862 5862 5863 5864 5866 5864 5858 5859 5861 5861 5861 5861 5860 5860 5860 5860 5860 5859 5858 5857 5856 5856 5855 5854 5853 5853 5854 5854 5853 5851 5850 5850 5850 5849 5850 5850 5850 5849 5848 5848 5847 5844 5843 5841 5837 5838 5840 5837 5835 5842 5847 5843 5838 5834 5834 5836 5835 5834 5834 5833 5834 5834 5833
5850 5851 5851 5852 5853 5853 5853 5853 5854 5854 5854 5854 5855 5855 5856 5856 5856 5857 5856 5856 5856 5857 5857 5858 5858 5859 5860 5860 5862 5865 5860 5856 5857 5858 5857 5857 5857 5857 5857 5857 5857 5856 5856 5855 5854 5853 5852 5851 5851 5850 5849 5850 5850 5850 5848 5846 5846 5846 5845 5846 5847 5846 5846 5845 5845 5844 5840 5839 5838 5832 5833 5835 5834 5833 5839 5844 5839 5834 5832 5832 5833 5832 5831 5831 5830 5830 5830 5830
5847 5847 5848 5849 5849 5850 5850 5850 5850 5850 5850 5851 5851 5852 5852 5852 5853 5853 5853 5853 5853 5853 5854 5854 5855 5855 5856 5857 5860 5861 5857 5855 5855 5854 5853 5853 5853 5854 5854 5854 5853 5853 5852 5851 5850 5849 5848 5847 5847 5846 5845 5845 5846 5846 5845 5844 5842 5842 5841 5841 5843 5842 5843 5843 5842 5841 5836 5835 5834 5828 5827 5831 5832 5831 5836 5840 5835 5830 5829 5830 5830 5829 5829 5828 5828 5826 5826 5827
5843 5844 5844 5845 5846 5846 5846 5846 5847 5847 5847 5848 5848 5848 5849 5849 5850 5850 5850 5850 5850 5850 5850 5850 5851 5851 5852 5854 5857 5857 5854 5854 5852 5850 5849 5848 5849 5851 5851 5850 5850 5849 5848 5848 5847 5845 5844 5843 5843 5842 5841 5841 5842 5841 5841 5841 5838 5838 5836 5835 5838 5838 5839 5841 5838 5836 5833 5831 5831 5825 5820 5826 5831 5830 5833 5834 5829 5827 5826 5827 5827 5827 5827 5826 5825 5824 5823 5824
5840 5840 5841 5841 5842 5842 5843 5843 5843 5843 5844 5844 5844 5845 5845 5846 5846 5846 5847 5847 5846 5846 5847 5846 5847 5847 5847 5851 5854 5852 5851 5851 5849 5846 5845 5844 5846 5847 5847 5846 5846 5845 5845 5844 5843 5842 5840 5839 5838 5838 5837 5836 5837 5837 5837 5837 5834 5834 5832 5829 5832 5832 5835 5838 5832 5830 5831 5828 5827 5821 5812 5819 5829 5829 5830 5828 5824 5823 5823 5823 5823 5824 5824 5824 5822 5821 5820 5820
5836 5836 5837 5837 5838 5838 5839 5839 5839 5840 5840 5840 5841 5841 5841 5842 5842 5843 5843 5843 5842 5842 5843 5843 5843 5843 5843 5848 5850 5849 5848 5847 5845 5843 5842 5842 5842 5843 5843 5842 5842 5841 5840 5840 5839 5838 5837 5836 5834 5833 5833 5832 5833 5833 5833 5832 5829 5830 5828 5825 5826 5824 5827 5833 5829 5827 5830 5826 5823 5817 5807 5812 5823 5827 5827 5823 5819 5819 5818 5820 5820 5820 5822 5821 5820 5818 5816 5816
5831 5832 5832 5833 5833 5834 5834 5835 5835 5835 5836 5836 5837 5837 5837 5837 5838 5838 5838 5839 5838 5838 5838 5838 5839 5838 5839 5844 5845 5845 5845 5842 5840 5840 5839 5839 5838 5839 5839 5838 5838 5837 5836 5836 5835 5834 5833 5832 5830 5829 5829 5829 5829 5829 5830 5826 5824 5826 5823 5820 5820 5817 5818 5825 5827 5826 5827 5823 5819 5812 5803 5805 5816 5823 5824 5819 5816 5814 5814 5817 5817 5817 5818 5817 5816 5815 5813 5812
5827 5828 5828 5828 5829 5829 5830 5830 5831 5831 5832 5832 5832 5833 5833 5833 5833 5833 5834 5834 5834 5834 5834 5833 5834 5833 5834 5839 5841 5840 5840 5838 5837 5836 5836 5836 5835 5835 5835 5834 5834 5833 5832 5831 5831 5830 5829 5827 5826 5824 5824 5825 5826 5826 5824 5820 5820 5822 5818 5814 5814 5814 5812 5816 5823 5825 5823 5819 5813 5808 5800 5800 5809 5816 5818 5816 5812 5810 5810 5814 5814 5813 5814 5813 5812 5811 5809 5809
5823 5823 5824 5824 5824 5825 5825 5825 5826 5826 5827 5827 5827 5827 5828 5828 5828 5828 5829 5829 5829 5830 5829 5829 5829 5828 5829 5833 5835 5835 5834 5833 5833 5833 5832 5832 5832 5831 5831 5830 5830 5829 5828 5827 5826 5826 5825 5822 5821 5820 5821 5822 5824 5822 5817 5813 5815 5816 5813 5810 5810 5810 5809 5809 5815 5820 5820 5814 5808 5803 5796 5796 5804 5808 5810 5812 5810 5806 5807 5810 5810 5809 5810 5809 5808 5807 5807 5806
5819 5819 5819 5819 5820 5820 5820 5821 5821 5821 5821 5822 5822 5822 5823 5823 5823 5823 5823 5824 5824 5825 5824 5824 5824 5823 5824 5828 5829 5829 5829 5828 5828 5828 5828 5828 5828 5827 5826 5826 5825 5824 5824 5823 5822 5821 5819 5817 5815 5815 5818 5820 5820 5816 5810 5808 5810 5809 5807 5807 5805 5805 5805 5805 5809 5813 5813 5809 5803 5798 5793 5793 5798 5800 5803 5808 5808 5804 5804 5806 5806 5805 5804 5804 5804 5803 5803 5802
5814 5814 5815 5815 5815 5815 5816 5816 5816 5816 5816 5816 5817 5817 5817 5817 5818 5818 5817 5818 5819 5819 5818 5819 5819 5818 5819 5822 5822 5822 5822 5823 5823 5823 5824 5825 5824 5823 5822 5821 5820 5820 5819 5819 5818 5816 5814 5812 5810 5811 5816 5818 5814 5809 5805 5805 5805 5803 5802 5801 5800 5800 5800 5802 5804 5804 5803 5799 5797 5796 5792 5790 5791 5794 5799 5802 5804 5802 5802 5802 5800 5799 5800 5800 5800 5799 5799 5797
5808 5809 5809 5810 5810 5810 5810 5810 5810 5811 5811 5811 5811 5812 5812 5811 5812 5812 5812 5812 5813 5813 5813 5812 5813 5813 5814 5816 5815 5814 5816 5817 5817 5819 5820 5820 5820 5819 5817 5817 5816 5815 5815 5814 5812 5810 5810 5806 5805 5810 5813 5810 5806 5803 5802 5802 5800 5798 5797 5796 5795 5794 5794 5799 5799 5797 5796 5790 5788 5792 5790 5788 5788 5789 5793 5795 5797 5799 5800 5797 5794 5794 5796 5796 5795 5794 5794 5792
5803 5804 5804 5804 5804 5804 5804 5805 5805 5805 5805 5806 5805 5805 5805 5806 5806 5806 5806 5807 5807 5807 5807 5807 5806 5807 5809 5809 5808 5808 5808 5809 5812 5814 5814 5814 5814 5814 5813 5812 5811 5810 5810 5808 5806 5806 5804 5799 5802 5807 5806 5802 5800 5799 5798 5797 5795 5794 5793 5791 5790 5789 5789 5792 5792 5791 5792 5785 5783 5785 5783 5782 5785 5785 5787 5788 5790 5794 5796 5793 5789 5790 5792 5792 5790 5789 5789 5787
5798 5799 5799 5799 5799 5799 5799 5799 5799 5799 5800 5800 5800 5800 5799 5799 5800 5800 5800 5801 5803 5802 5800 5801 5801 5801 5802 5801 5801 5802 5801 5803 5806 5807 5808 5808 5808 5808 5807 5806 5806 5805 5804 5803 5803 5802 5796 5794 5799 5801 5797 5795 5795 5794 5793 5791 5791 5790 5789 5786 5784 5785 5784 5783 5785 5786 5786 5781 5779 5780 5775 5775 5780 5781 5780 5782 5787 5790 5790 5788 5786 5786 5787 5788 5786 5784 5783 5783
5793 5793 5793 5793 5793 5793 5793 5793 5794 5794 5794 5794 5794 5794 5794 5794 5794 5794 5793 5793 5796 5798 5797 5796 5795 5794 5794 5793 5794 5795 5796 5798 5800 5800 5801 5801 5801 5801 5800 5800 5800 5799 5798 5799 5799 5795 5790 5790 5794 5794 5791 5791 5790 5788 5787 5786 5786 5785 5785 5782 5779 5781 5779 5776 5778 5779 5779 5777 5775 5774 5770 5768 5772 5774 5773 5777 5783 5786 5784 5783 5783 5782 5782 5782 5781 5780 5778 5777
5788 5788 5788 5788 5788 5788 5788 5788 5788 5788 5788 5788 5788 5788 5788 5789 5788 5788 5788 5786 5787 5791 5792 5792 5790 5788 5787 5786 5788 5789 5790 5792 5793 5794 5794 5793 5794 5794 5793 5793 5793 5793 5793 5793 5792 5788 5786 5787 5788 5788 5786 5785 5783 5782 5781 5780 5780 5780 5779 5777 5776 5777 5775 5772 5772 5771 5771 5772 5771 5769 5764 5761 5763 5766 5767 5771 5777 5780 5779 5778 5779 5780 5778 5776 5775 5774 5773 5773
5782 5782 5783 5783 5783 5783 5783 5782 5782 5782 5782 5782 5782 5782 5783 5783 5783 5783 5783 5781 5780 5783 5784 5785 5785 5783 5782 5782 5783 5784 5785 5786 5786 5786 5786 5786 5786 5786 5786 5786 5785 5786 5786 5785 5784 5782 5782 5782 5782 5782 5781 5779 5778 5777 5775 5774 5774 5774 5773 5772 5772 5771 5770 5768 5767 5765 5763 5765 5766 5766 5761 5755 5755 5758 5762 5766 5769 5772 5772 5771 5773 5775 5773 5772 5771 5768 5767 5768
5776 5777 5777 5777 5777 5777 5777 5777 5777 5777 5777 5776 5776 5777 5777 5778 5778 5778 5777 5776 5775 5776 5774 5774 5777 5778 5778 5778 5779 5780 5780 5779 5780 5779 5779 5779 5779 5778 5779 5778 5778 5778 5778 5777 5775 5775 5776 5777 5776 5776 5775 5773 5772 5772 5771 5769 5767 5766 5767 5768 5766 5765 5765 5764 5763 5761 5759 5758 5758 5759 5757 5752 5749 5753 5759 5761 5760 5762 5763 5761 5766 5771 5768 5767 5766 5763 5761 5761
5770 5770 5771 5772 5772 5772 5772 5771 5771 5771 5770 5770 5771 5772 5772 5772 5772 5773 5773 5771 5770 5770 5765 5764 5768 5770 5772 5772 5774 5775 5774 5773 5773 5773 5772 5772 5772 5772 5771 5771 5771 5770 5770 5769 5767 5768 5769 5769 5769 5768 5767 5766 5766 5767 5766 5762 5760 5760 5762 5761 5760 5759 5759 5759 5758 5756 5755 5754 5752 5752 5752 5750 5747 5747 5751 5754 5753 5754 5754 5751 5756 5763 5762 5761 5760 5759 5756 5754
5763 5764 5765 5765 5766 5766 5766 5765 5765 5764 5764 5765 5766 5766 5767 5767 5768 5769 5768 5766 5764 5762 5759 5758 5761 5764 5766 5765 5766 5769 5767 5767 5767 5765 5765 5764 5764 5765 5764 5765 5764 5763 5763 5761 5761 5763 5762 5761 5761 5760 5760 5760 5761 5761 5758 5755 5754 5756 5756 5755 5754 5753 5753 5752 5752 5750 5749 5749 5747 5746 5749 5749 5747 5745 5744 5744 5745 5747 5749 5749 5750 5752 5753 5754 5753 5752 5750 5747
5757 5758 5758 5759 5760 5760 5760 5759 5758 5758 5758 5759 5759 5760 5761 5762 5763 5763 5762 5759 5756 5754 5755 5756 5756 5757 5759 5758 5760 5761 5761 5761 5760 5759 5759 5758 5757 5759 5758 5758 5758 5757 5757 5755 5755 5757 5756 5755 5755 5754 5754 5755 5755 5753 5752 5751 5750 5750 5750 5749 5748 5747 5746 5746 5745 5745 5744 5744 5743 5743 5746 5746 5744 5744 5741 5738 5739 5739 5741 5744 5746 5746 5746 5745 5744 5742 5741 5741
5752 5752 5753 5754 5754 5753 5753 5753 5752 5752 5752 5752 5753 5753 5755 5756 5757 5757 5753 5751 5750 5749 5752 5752 5750 5751 5753 5753 5753 5753 5753 5753 5753 5752 5752 5752 5752 5752 5752 5752 5751 5751 5750 5749 5750 5751 5750 5749 5749 5749 5749 5749 5748 5747 5747 5746 5745 5745 5745 5744 5743 5741 5740 5739 5738 5739 5738 5738 5740 5741 5742 5743 5740 5737 5735 5735 5736 5736 5735 5736 5737 5740 5741 5738 5735 5732 5729 5731
5745 5746 5747 5748 5747 5747 5748 5746 5745 5746 5746 5746 5746 5747 5748 5749 5751 5749 5744 5744 5746 5746 5747 5746 5744 5746 5747 5748 5748 5746 5745 5745 5745 5746 5746 5746 5746 5746 5747 5746 5745 5744 5743 5742 5744 5744 5743 5743 5743 5744 5744 5744 5743 5742 5741 5740 5740 5740 5739 5738 5737 5735 5734 5732 5732 5733 5731 5733 5738 5737 5736 5738 5735 5732 5731 5731 5731 5732 5733 5732 5729 5731 5733 5732 5728 5723 5719 5719
5738 5739 5739 5740 5741 5741 5741 5740 5739 5740 5740 5740 5740 5740 5741 5742 5743 5741 5738 5740 5741 5740 5742 5742 5740 5741 5741 5742 5742 5740 5739 5738 5738 5738 5738 5739 5739 5740 5741 5741 5740 5738 5737 5737 5737 5736 5736 5737 5737 5737 5738 5738 5735 5734 5734 5733 5734 5733 5732 5731 5730 5728 5727 5725 5725 5726 5727 5730 5732 5730 5728 5728 5729 5731 5732 5731 5730 5729 5728 5727 5724 5723 5724 5724 5720 5716 5713 5710
5733 5733 5733 5733 5734 5734 5734 5733 5733 5733 5734 5734 5734 5734 5734 5735 5736 5734 5734 5736 5736 5734 5736 5736 5735 5735 5735 5736 5735 5733 5733 5731 5731 5731 5730 5731 5731 5733 5734 5734 5735 5732 5730 5731 5729 5729 5729 5731 5732 5731 5732 5732 5729 5728 5727 5726 5726 5725 5725 5724 5722 5722 5720 5717 5719 5720 5721 5724 5723 5722 5721 5720 5725 5729 5730 5730 5730 5728 5724 5721 5719 5717 5715 5713 5710 5706 5704 5703
5727 5727 5728 5729 5729 5728 5727 5727 5727 5728 5728 5727 5727 5727 5728 5730 5730 5729 5729 5730 5730 5729 5729 5729 5728 5729 5729 5730 5728 5727 5726 5723 5724 5725 5724 5723 5724 5725 5727 5728 5728 5726 5723 5723 5722 5722 5721 5723 5727 5725 5724 5726 5724 5722 5721 5719 5719 5718 5719 5717 5715 5717 5714 5711 5713 5713 5713 5714 5713 5714 5713 5714 5721 5726 5726 5726 5726 5724 5720 5716 5713 5710 5707 5703 5698 5695 5694 5694
5720 5721 5721 5723 5723 5722 5721 5721 5721 5722 5721 5721 5719 5719 5722 5725 5725 5724 5724 5723 5722 5722 5723 5723 5723 5723 5722 5723 5722 5722 5720 5716 5717 5718 5717 5717 5717 5718 5720 5721 5722 5720 5717 5715 5714 5715 5711 5715 5722 5718 5715 5719 5718 5716 5715 5712 5711 5711 5712 5709 5708 5711 5709 5705 5704 5704 5705 5702 5701 5705 5704 5707 5716 5720 5722 5722 5720 5718 5712 5709 5708 5703 5698 5694 5688 5687 5687 5687
5713 5714 5715 5716 5715 5714 5713 5714 5714 5713 5713 5713 5711 5712 5719 5722 5720 5719 5719 5717 5716 5715 5715 5715 5716 5716 5715 5716 5717 5716 5714 5711 5710 5710 5710 5710 5710 5712 5714 5716 5716 5714 5712 5708 5705 5706 5703 5707 5716 5712 5707 5710 5710 5708 5707 5705 5704 5704 5703 5703 5704 5703 5701 5698 5693 5694 5695 5689 5690 5696 5695 5699 5705 5708 5715 5719 5716 5711 5704 5702 5700 5692 5688 5686 5682 5681 5680 5679
5706 5707 5709 5710 5707 5705 5706 5707 5706 5705 5705 5705 5703 5708 5715 5716 5715 5715 5714 5712 5710 5708 5707 5706 5708 5709 5708 5709 5711 5709 5706 5704 5704 5703 5703 5703 5702 5705 5708 5708 5709 5708 5706 5702 5697 5697 5694 5696 5706 5707 5700 5700 5702 5700 5698 5697 5696 5694 5694 5697 5697 5693 5691 5690 5685 5684 5684 5677 5678 5686 5688 5692 5694 5696 5705 5711 5710 5706 5697 5693 5689 5681 5679 5678 5675 5675 5674 5672
5699 5700 5703 5703 5700 5699 5699 5699 5698 5697 5697 5696 5697 5703 5708 5708 5710 5709 5706 5705 5703 5700 5699 5698 5699 5700 5699 5701 5703 5702 5699 5697 5696 5695 5696 5696 5695 5698 5700 5699 5699 5700 5698 5695 5690 5689 5686 5683 5691 5700 5696 5691 5692 5693 5691 5690 5688 5686 5686 5687 5687 5683 5681 5681 5676 5673 5673 5668 5667 5672 5675 5680 5683 5687 5695 5698 5700 5697 5686 5680 5677 5673 5673 5671 5668 5667 5666 5665
5691 5693 5694 5696 5694 5691 5691 5691 5689 5689 5688 5689 5693 5697 5699 5701 5701 5700 5698 5697 5696 5693 5691 5691 5690 5689 5690 5692 5693 5693 5692 5689 5689 5688 5687 5687 5687 5690 5691 5690 5690 5690 5688 5686 5682 5681 5679 5672 5674 5687 5690 5683 5681 5685 5685 5684 5682 5678 5676 5675 5675 5674 5671 5670 5667 5665 5665 5660 5657 5659 5659 5663 5672 5680 5684 5686 5686 5679 5671 5670 5670 5667 5665 5662 5659 5658 5656 5656
5683 5683 5684 5688 5686 5683 5683 5681 5680 5681 5681 5684 5688 5690 5691 5692 5693 5693 5691 5689 5687 5685 5684 5683 5683 5681 5681 5684 5684 5684 5683 5681 5681 5681 5679 5679 5680 5681 5682 5681 5682 5681 5678 5677 5674 5672 5671 5665 5662 5671 5678 5675 5674 5676 5677 5676 5673 5669 5667 5666 5665 5665 5663 5659 5657 5657 5658 5652 5649 5648 5644 5648 5661 5669 5672 5673 5667 5660 5661 5663 5662 5659 5656 5652 5650 5649 5648 5648
5675 5674 5675 5678 5676 5674 5674 5671 5671 5674 5673 5676 5681 5683 5682 5683 5685 5686 5683 5680 5679 5677 5676 5675 5675 5674 5674 5675 5675 5675 5673 5671 5672 5672 5670 5672 5672 5671 5673 5673 5672 5672 5670 5668 5666 5664 5662 5658 5654 5656 5661 5665 5668 5669 5666 5664 5663 5660 5658 5658 5658 5658 5656 5651 5646 5648 5650 5644 5641 5640 5632 5635 5649 5659 5663 5659 5649 5648 5654 5655 5653 5651 5649 5646 5643 5640 5639 5639
5668 5667 5667 5668 5666 5665 5665 5662 5664 5666 5664 5668 5674 5673 5671 5672 5675 5676 5674 5672 5670 5668 5668 5667 5666 5666 5665 5666 5666 5666 5663 5661 5662 5663 5662 5663 5664 5663 5664 5665 5663 5663 5661 5658 5658 5657 5654 5650 5646 5645 5649 5653 5657 5660 5657 5653 5654 5652 5649 5650 5651 5650 5649 5644 5637 5639 5641 5635 5635 5635 5624 5624 5637 5649 5652 5644 5636 5639 5643 5643 5642 5642 5641 5639 5637 5634 5631 5629
5660 5658 5659 5659 5658 5657 5656 5655 5658 5658 5656 5660 5663 5661 5660 5661 5664 5666 5665 5662 5659 5659 5659 5658 5658 5657 5657 5658 5657 5656 5655 5652 5652 5655 5654 5653 5655 5655 5655 5657 5656 5655 5653 5651 5650 5649 5647 5643 5639 5637 5638 5640 5644 5648 5648 5644 5645 5643 5640 5644 5644 5641 5641 5637 5632 5633 5630 5626 5629 5626 5616 5617 5628 5635 5636 5631 5628 5631 5631 5630 5632 5631 5631 5631 5629 5627 5624 5621
5650 5648 5649 5650 5649 5648 5648 5650 5651 5649 5649 5652 5652 5651 5652 5651 5654 5658 5656 5652 5650 5650 5649 5648 5649 5649 5648 5649 5648 5648 5648 5643 5642 5647 5646 5644 5646 5647 5647 5647 5647 5647 5646 5644 5643 5643 5639 5636 5633 5630 5628 5628 5632 5637 5638 5637 5636 5631 5630 5633 5633 5632 5631 5627 5626 5626 5618 5615 5621 5615 5606 5611 5619 5621 5622 5621 5619 5619 5619 5619 5620 5619 5619 5618 5617 5616 5615 5613
5641 5639 5639 5641 5640 5638 5640 5643 5642 5640 5641 5643 5642 5644 5645 5644 5647 5649 5647 5644 5643 5641 5640 5640 5641 5641 5640 5640 5639 5640 5640 5637 5634 5636 5637 5637 5638 5638 5638 5638 5639 5639 5639 5636 5635 5635 5631 5628 5628 5625 5620 5618 5621 5626 5629 5628 5625 5621 5620 5622 5622 5622 5621 5618 5618 5615 5607 5607 5611 5604 5598 5603 5609 5610 5610 5610 5609 5609 5609 5608 5607 5606 5605 5604 5604 5603 5603 5602
5632 5631 5630 5631 5630 5629 5632 5634 5633 5632 5634 5634 5633 5635 5638 5638 5639 5639 5638 5637 5636 5634 5633 5632 5633 5633 5632 5632 5631 5630 5632 5631 5627 5625 5627 5630 5630 5629 5630 5630 5630 5630 5630 5629 5628 5626 5621 5618 5620 5618 5613 5612 5613 5615 5619 5618 5613 5611 5611 5613 5614 5613 5613 5611 5607 5601 5600 5599 5596 5595 5595 5594 5596 5600 5600 5598 5599 5599 5598 5597 5595 5594 5593 5593 5593 5592 5591 5591
5624 5623 5623 5623 5621 5622 5624 5625 5624 5624 5625 5624 5623 5626 5630 5630 5630 5629 5629 5629 5627 5627 5626 5625 5626 5625 5624 5625 5623 5619 5621 5623 5620 5618 5619 5620 5621 5620 5620 5621 5621 5621 5622 5620 5618 5617 5611 5606 5610 5611 5605 5605 5606 5605 5608 5607 5603 5601 5601 5601 5603 5603 5602 5601 5595 5592 5595 5588 5579 5586 5591 5582 5582 5589 5587 5584 5586 5586 5586 5586 5585 5584 5584 5582 5582 5581 5580 5579
5615 5615 5616 5615 5614 5616 5616 5616 5616 5616 5616 5615 5614 5617 5622 5622 5621 5620 5620 5619 5618 5618 5617 5616 5619 5619 5617 5617 5614 5610 5612 5613 5611 5612 5612 5611 5612 5611 5610 5611 5612 5612 5613 5610 5608 5608 5601 5596 5601 5601 5594 5595 5598 5597 5597 5596 5593 5592 5590 5588 5590 5592 5592 5590 5585 5585 5586 5575 5568 5577 5580 5573 5573 5576 5572 5571 5573 5573 5573 5574 5573 5573 5573 5572 5571 5570 5569 5568
5607 5608 5608 5607 5608 5609 5608 5608 5608 5608 5608 5607 5605 5609 5613 5612 5612 5612 5609 5607 5608 5610 5608 5606 5609 5611 5609 5608 5605 5602 5603 5603 5601 5603 5604 5602 5602 5602 5601 5601 5601 5602 5603 5601 5599 5597 5590 5587 5591 5589 5583 5585 5589 5588 5588 5586 5582 5581 5579 5577 5578 5581 5582 5581 5578 5578 5576 5567 5564 5567 5564 5562 5564 5563 5560 5560 5561 5561 5561 5561 5561 5560 5560 5560 5559 5558 5557 5556
5599 5600 5600 5600 5600 5601 5600 5600 5600 5600 5601 5599 5597 5601 5603 5601 5602 5603 5600 5597 5598 5600 5600 5596 5598 5601 5599 5599 5597 5594 5594 5594 5593 5593 5595 5594 5593 5592 5592 5591 5592 5593 5592 5592 5591 5587 5582 5579 5579 5578 5573 5572 5578 5580 5576 5574 5571 5567 5566 5569 5572 5572 5571 5570 5569 5568 5566 5559 5557 5556 5552 5551 5552 5550 5550 5550 5549 5549 5548 5547 5548 5548 5547 5547 5547 5546 5546 5544
5590 5591 5592 5592 5592 5592 5592 5592 5592 5591 5592 5592 5590 5592 5593 5591 5593 5594 5592 5590 5588 5590 5590 5588 5589 5590 5589 5589 5588 5586 5585 5585 5584 5584 5585 5584 5584 5584 5582 5582 5583 5583 5583 5583 5581 5578 5576 5570 5569 5569 5560 5558 5568 5569 5562 5562 5559 5552 5554 5562 5566 5565 5562 5559 5558 5558 5555 5550 5548 5546 5543 5542 5542 5539 5538 5537 5535 5535 5535 5534 5535 5536 5535 5535 5534 5534 5534 5532
5581 5582 5583 5583 5583 5584 5585 5584 5583 5582 5583 5584 5582 5582 5582 5583 5583 5583 5582 5581 5580 5581 5581 5580 5579 5579 5578 5578 5579 5578 5577 5576 5576 5575 5574 5574 5573 5573 5572 5572 5573 5573 5574 5574 5571 5569 5569 5562 5560 5560 5548 5546 5558 5557 5549 5549 5543 5538 5550 5558 5556 5554 5552 5549 5548 5549 5546 5542 5538 5536 5534 5533 5532 5529 5527 5525 5522 5520 5520 5519 5520 5521 5522 5522 5521 5521 5521 5520